Location: Lane
(33.5226°N, 79.8788°W)
Time: 10:10:42
(UTC+00:00)

Altair - Pass Details

Date: 06 October 2022
Orbit: 1501 x 1682 km, 47.2° (Epoch: 30 November)

Event Time Altitude Azimuth Distance (km) Brightness Sun altitude
Rises 17:30:53 0° 299° (WNW) 4,927 10.0 50.8°
Reaches altitude 10° 17:34:30 10° 289° (WNW) 3,943 9.7 50.6°
Maximum altitude 17:42:57 31° 233° (SW) 2,622 9.8 50.3°
Drops below altitude 10° 17:51:21 10° 175° (S) 3,898 10.4 49.8°
Sets 17:54:57 0° 165° (SSE) 4,863 10.6 49.6°
